Simultaneous Nadir Overpasses (SNOs) Predictions

Prediction of SNOs between AQUA and NPP Satellite Orbit:

Table of predicted SNOs for the next 14.0 days since TLE Epoch: 10/15/2022
Index Date (AQUA) Time (AQUA) Lat,Lon (AQUA) SZA (AQUA ) Date (NPP) Time (NPP) Lat,Lon (NPP) SZA (NPP ) Distance(km) Time Diff (sec)
1 10/17/2022 17:53:26 -78.85, -15.94 78.06 10/17/2022 17:52:58 -78.86, -15.89 78.05 1.08 28
2 10/17/2022 18:42:43 79.19, 153.72 101.52 10/17/2022 18:43:33 79.19, 153.75 101.48 0.68 50
3 10/20/2022 09:19:34 78.85, -67.46 102.86 10/20/2022 09:19:06 78.86, -67.43 102.87 0.58 28
4 10/20/2022 10:08:51 -79.23, 102.47 77.63 10/20/2022 10:09:41 -79.23, 102.53 77.68 1.42 50
5 10/23/2022 00:45:44 -78.82,-119.15 76.21 10/23/2022 00:45:17 -78.83,-119.16 76.19 0.30 27
6 10/23/2022 01:35:00 79.19, 50.72 103.33 10/23/2022 01:35:51 79.19, 50.70 103.29 0.47 51
7 10/25/2022 16:11:48 78.95,-169.93 104.51 10/25/2022 16:11:22 78.96,-169.82 104.51 2.64 26
8 10/25/2022 17:01:09 -79.17, -0.96 75.77 10/25/2022 17:02:02 -79.16, -1.08 75.78 2.71 53
9 10/28/2022 07:37:58 -78.85, 137.97 74.50 10/28/2022 07:37:35 -78.85, 137.91 74.47 1.18 23



Historial Predications of SNOs between AQUA and NPP
